TRADE65 KGCN-KBUR

Flight info

Callsign TRADE65
Flight time 1h 8m
Altitude 46000
Route PARKS4 PGS J64 HEC LYNXX8
Aircraft C750/M-SBDE3FGHRWXY/S

Departure

Time 2026-05-05 05:33
Airport Grand Canyon National Park Airport (KGCN)

Arrival

Time 2026-05-05 06:41
Airport Hollywood Burbank/Bob Hope Airport (KBUR)
Time Latitude Longitude Altitude Speed Heading
2026-05-05 05:12 35.96145 -112.13482 6617 ft 0 kts 38°
2026-05-05 05:29 35.96152 -112.13476 6616 ft 3 kts 33°
2026-05-05 05:30 35.96170 -112.13484 6615 ft 4 kts 313°
2026-05-05 05:30 35.96182 -112.13507 6617 ft 3 kts 274°
2026-05-05 05:30 35.96174 -112.13528 6617 ft 3 kts 231°
2026-05-05 05:30 35.96142 -112.13560 6616 ft 10 kts 218°
2026-05-05 05:31 35.96143 -112.13640 6614 ft 14 kts 259°
2026-05-05 05:31 35.96147 -112.13731 6613 ft 8 kts 220°
2026-05-05 05:31 35.96144 -112.13734 6612 ft 0 kts 219°
2026-05-05 05:32 35.96120 -112.13759 6611 ft 31 kts 220°
2026-05-05 05:32 35.95688 -112.14216 6599 ft 124 kts 220°
2026-05-05 05:32 35.94933 -112.15019 6889 ft 153 kts 221°
2026-05-05 05:33 35.94147 -112.15981 7528 ft 166 kts 230°
2026-05-05 05:33 35.93418 -112.17040 8482 ft 158 kts 229°
2026-05-05 05:33 35.92654 -112.18040 9351 ft 159 kts 226°
2026-05-05 05:33 35.91906 -112.19030 10055 ft 162 kts 234°
2026-05-05 05:34 35.91502 -112.20350 10670 ft 166 kts 258°
2026-05-05 05:34 35.91599 -112.21788 11318 ft 172 kts 278°
2026-05-05 05:34 35.91880 -112.23209 11979 ft 174 kts 277°
2026-05-05 05:34 35.92149 -112.24676 12618 ft 177 kts 277°
2026-05-05 05:35 35.92430 -112.26169 13264 ft 180 kts 277°
2026-05-05 05:35 35.92708 -112.27715 13708 ft 193 kts 274°
2026-05-05 05:35 35.92532 -112.29338 14319 ft 189 kts 250°
2026-05-05 05:35 35.92167 -112.30884 15069 ft 188 kts 251°
2026-05-05 05:36 35.91818 -112.32451 15750 ft 190 kts 251°
2026-05-05 05:36 35.91457 -112.34025 16483 ft 191 kts 250°
2026-05-05 05:36 35.91090 -112.35606 17227 ft 193 kts 250°
2026-05-05 05:36 35.90720 -112.37202 17979 ft 194 kts 249°
2026-05-05 05:37 35.90348 -112.38805 18692 ft 195 kts 249°
2026-05-05 05:37 35.89976 -112.40413 19389 ft 195 kts 250°
2026-05-05 05:37 35.89601 -112.42026 20101 ft 196 kts 250°
2026-05-05 05:37 35.89225 -112.43645 20824 ft 196 kts 250°
2026-05-05 05:38 35.88841 -112.45266 21534 ft 198 kts 250°
2026-05-05 05:38 35.88452 -112.46904 22230 ft 201 kts 250°
2026-05-05 05:38 35.88058 -112.48568 22923 ft 203 kts 250°
2026-05-05 05:38 35.87662 -112.50243 23592 ft 204 kts 250°
2026-05-05 05:39 35.87265 -112.51923 24240 ft 203 kts 250°
2026-05-05 05:39 35.86872 -112.53585 24941 ft 201 kts 249°
2026-05-05 05:39 35.86482 -112.55229 25633 ft 199 kts 249°
2026-05-05 05:39 35.86096 -112.56855 26334 ft 197 kts 248°
2026-05-05 05:40 35.85713 -112.58467 27043 ft 195 kts 248°
2026-05-05 05:40 35.85334 -112.60065 27749 ft 194 kts 247°
2026-05-05 05:40 35.84957 -112.61652 28466 ft 192 kts 247°
2026-05-05 05:40 35.84583 -112.63224 29193 ft 191 kts 246°
2026-05-05 05:41 35.84210 -112.64790 29924 ft 190 kts 246°
2026-05-05 05:41 35.83838 -112.66350 30517 ft 190 kts 246°
2026-05-05 05:41 35.83465 -112.67915 31075 ft 191 kts 246°
2026-05-05 05:41 35.83089 -112.69489 31637 ft 192 kts 246°
2026-05-05 05:42 35.82712 -112.71069 32199 ft 193 kts 246°
2026-05-05 05:42 35.82332 -112.72662 32756 ft 194 kts 246°
2026-05-05 05:42 35.81949 -112.74264 33314 ft 196 kts 246°
2026-05-05 05:42 35.81564 -112.75874 33857 ft 197 kts 246°
2026-05-05 05:43 35.81174 -112.77500 34309 ft 199 kts 246°
2026-05-05 05:43 35.80779 -112.79149 34742 ft 203 kts 246°
2026-05-05 05:43 35.80376 -112.80830 35132 ft 207 kts 246°
2026-05-05 05:43 35.79952 -112.82585 35224 ft 223 kts 247°
2026-05-05 05:44 35.79495 -112.84480 35393 ft 235 kts 247°
2026-05-05 05:44 35.79038 -112.86410 35882 ft 236 kts 248°
2026-05-05 05:44 35.78570 -112.88360 36294 ft 239 kts 247°
2026-05-05 05:44 35.78094 -112.90336 36724 ft 242 kts 248°
2026-05-05 05:45 35.77611 -112.92341 37135 ft 246 kts 248°
2026-05-05 05:45 35.77122 -112.94372 37585 ft 249 kts 248°
2026-05-05 05:45 35.76627 -112.96427 38040 ft 252 kts 248°
2026-05-05 05:45 35.76124 -112.98508 38482 ft 255 kts 248°
2026-05-05 05:46 35.75615 -113.00617 38854 ft 259 kts 248°
2026-05-05 05:46 35.75105 -113.02727 39204 ft 263 kts 248°
2026-05-05 05:46 35.74580 -113.04898 39557 ft 267 kts 248°
2026-05-05 05:46 35.74039 -113.07134 39912 ft 271 kts 249°
2026-05-05 05:47 35.73504 -113.09341 40258 ft 275 kts 249°
2026-05-05 05:47 35.72953 -113.11612 40562 ft 280 kts 249°
2026-05-05 05:47 35.72388 -113.13936 40833 ft 286 kts 249°
2026-05-05 05:47 35.71817 -113.16289 41192 ft 289 kts 249°
2026-05-05 05:48 35.71237 -113.18676 41528 ft 293 kts 249°
2026-05-05 05:48 35.70648 -113.21095 41854 ft 297 kts 249°
2026-05-05 05:48 35.70052 -113.23541 42179 ft 301 kts 249°
2026-05-05 05:48 35.69448 -113.26018 42466 ft 304 kts 249°
2026-05-05 05:49 35.68835 -113.28527 42802 ft 308 kts 249°
2026-05-05 05:49 35.68215 -113.31065 43118 ft 312 kts 250°
2026-05-05 05:49 35.67587 -113.33630 43420 ft 315 kts 250°
2026-05-05 05:49 35.66951 -113.36227 43717 ft 319 kts 250°
2026-05-05 05:50 35.66308 -113.38852 43992 ft 322 kts 250°
2026-05-05 05:50 35.65658 -113.41500 44279 ft 326 kts 250°
2026-05-05 05:50 35.64999 -113.44183 44557 ft 329 kts 250°
2026-05-05 05:50 35.64332 -113.46894 44776 ft 333 kts 250°
2026-05-05 05:51 35.63659 -113.49628 45018 ft 335 kts 250°
2026-05-05 05:51 35.62981 -113.52377 45270 ft 338 kts 250°
2026-05-05 05:51 35.62287 -113.55140 45503 ft 339 kts 249°
2026-05-05 05:51 35.61540 -113.57900 45728 ft 341 kts 249°
2026-05-05 05:52 35.60790 -113.60687 45854 ft 346 kts 249°
2026-05-05 05:52 35.60027 -113.63530 45843 ft 354 kts 249°
2026-05-05 05:52 35.58443 -113.69404 45845 ft 370 kts 249°
2026-05-05 05:53 35.56787 -113.75531 45855 ft 386 kts 249°
2026-05-05 05:53 35.55061 -113.81903 45872 ft 401 kts 249°
2026-05-05 05:54 35.53267 -113.88511 45885 ft 415 kts 249°
2026-05-05 05:54 35.51425 -113.95282 45885 ft 428 kts 250°
2026-05-05 05:55 35.49509 -114.02368 45876 ft 440 kts 250°
2026-05-05 05:55 35.47525 -114.09567 45879 ft 451 kts 250°
2026-05-05 05:56 35.45522 -114.16894 45876 ft 460 kts 250°
2026-05-05 05:56 35.43452 -114.24403 45857 ft 470 kts 250°
2026-05-05 05:57 35.41352 -114.32025 45848 ft 471 kts 250°
2026-05-05 05:57 35.39271 -114.39545 45842 ft 462 kts 250°
2026-05-05 05:58 35.37222 -114.46927 45825 ft 453 kts 250°
2026-05-05 05:58 35.35208 -114.54166 45833 ft 445 kts 250°
2026-05-05 05:59 35.33214 -114.61265 45836 ft 437 kts 249°
2026-05-05 05:59 35.31263 -114.68259 45847 ft 435 kts 249°
2026-05-05 06:00 35.29302 -114.75261 45859 ft 434 kts 249°
2026-05-05 06:00 35.27340 -114.82235 45871 ft 432 kts 249°
2026-05-05 06:01 35.25386 -114.89177 45864 ft 431 kts 249°
2026-05-05 06:01 35.23763 -114.94923 45857 ft 429 kts 249°
2026-05-05 06:02 35.21812 -115.01816 45886 ft 428 kts 249°
2026-05-05 06:02 35.19865 -115.08676 45869 ft 427 kts 249°
2026-05-05 06:03 35.17917 -115.15524 45591 ft 431 kts 249°
2026-05-05 06:03 35.16923 -115.19011 45007 ft 434 kts 249°
2026-05-05 06:03 35.15930 -115.22496 44408 ft 433 kts 249°
2026-05-05 06:04 35.14941 -115.25962 43824 ft 431 kts 249°
2026-05-05 06:04 35.13957 -115.29402 43271 ft 428 kts 248°
2026-05-05 06:04 35.12975 -115.32826 42706 ft 425 kts 248°
2026-05-05 06:04 35.12004 -115.36216 42147 ft 422 kts 248°
2026-05-05 06:05 35.11048 -115.39552 41605 ft 410 kts 247°
2026-05-05 06:05 35.10122 -115.42781 41070 ft 392 kts 247°
2026-05-05 06:05 35.09233 -115.45869 40555 ft 380 kts 246°
2026-05-05 06:05 35.08365 -115.48876 40066 ft 371 kts 246°
2026-05-05 06:06 35.07510 -115.51835 39575 ft 368 kts 246°
2026-05-05 06:06 35.06660 -115.54778 39094 ft 369 kts 245°
2026-05-05 06:06 35.05804 -115.57738 38611 ft 371 kts 245°
2026-05-05 06:06 35.04946 -115.60705 38079 ft 370 kts 245°
2026-05-05 06:07 35.04088 -115.63670 37590 ft 371 kts 245°
2026-05-05 06:07 35.03235 -115.66609 37103 ft 374 kts 245°
2026-05-05 06:07 35.02352 -115.69642 36609 ft 389 kts 245°
2026-05-05 06:07 35.01420 -115.72828 36085 ft 405 kts 245°
2026-05-05 06:08 35.00481 -115.76084 35545 ft 407 kts 245°
2026-05-05 06:08 34.99539 -115.79342 35004 ft 408 kts 245°
2026-05-05 06:08 34.98588 -115.82599 34462 ft 407 kts 245°
2026-05-05 06:08 34.97637 -115.85847 33922 ft 406 kts 244°
2026-05-05 06:09 34.96688 -115.89091 33343 ft 408 kts 245°
2026-05-05 06:09 34.95727 -115.92374 32798 ft 415 kts 245°
2026-05-05 06:09 34.94747 -115.95717 32286 ft 421 kts 245°
2026-05-05 06:09 34.93755 -115.99103 31688 ft 427 kts 245°
2026-05-05 06:10 34.92741 -116.02530 31127 ft 432 kts 245°
2026-05-05 06:10 34.91713 -116.05995 30559 ft 437 kts 246°
2026-05-05 06:10 34.90673 -116.09502 29974 ft 444 kts 246°
2026-05-05 06:10 34.89619 -116.13063 29336 ft 449 kts 246°
2026-05-05 06:11 34.88674 -116.16251 28809 ft 452 kts 246°
2026-05-05 06:11 34.87629 -116.19776 28216 ft 433 kts 246°
2026-05-05 06:11 34.86590 -116.23261 27652 ft 442 kts 246°
2026-05-05 06:11 34.85547 -116.26742 27095 ft 447 kts 247°
2026-05-05 06:12 34.84481 -116.30316 26484 ft 451 kts 247°
2026-05-05 06:12 34.83407 -116.33927 25890 ft 449 kts 247°
2026-05-05 06:12 34.82374 -116.37397 25316 ft 431 kts 247°
2026-05-05 06:12 34.81328 -116.40869 24755 ft 440 kts 247°
2026-05-05 06:13 34.80268 -116.44391 24183 ft 446 kts 248°
2026-05-05 06:13 34.79530 -116.48065 23900 ft 451 kts 259°
2026-05-05 06:13 34.79154 -116.51871 23936 ft 454 kts 260°
2026-05-05 06:13 34.78802 -116.55613 23941 ft 428 kts 260°
2026-05-05 06:14 34.78476 -116.59054 23939 ft 392 kts 259°
2026-05-05 06:14 34.78163 -116.62200 23929 ft 357 kts 259°
2026-05-05 06:14 34.77876 -116.65074 23934 ft 328 kts 259°
2026-05-05 06:14 34.77617 -116.67714 23937 ft 304 kts 258°
2026-05-05 06:15 34.77368 -116.70221 23945 ft 297 kts 258°
2026-05-05 06:15 34.77112 -116.72742 23951 ft 302 kts 258°
2026-05-05 06:15 34.76861 -116.75278 23954 ft 302 kts 258°
2026-05-05 06:15 34.76612 -116.77820 23964 ft 303 kts 258°
2026-05-05 06:16 34.76359 -116.80359 23972 ft 303 kts 258°
2026-05-05 06:16 34.76105 -116.82908 23961 ft 303 kts 258°
2026-05-05 06:16 34.75851 -116.85451 23965 ft 303 kts 258°
2026-05-05 06:16 34.75595 -116.87996 23967 ft 305 kts 258°
2026-05-05 06:17 34.75339 -116.90548 23960 ft 304 kts 258°
2026-05-05 06:17 34.75083 -116.93102 23955 ft 304 kts 258°
2026-05-05 06:17 34.74826 -116.95654 23955 ft 304 kts 258°
2026-05-05 06:17 34.74568 -116.98204 23953 ft 304 kts 258°
2026-05-05 06:18 34.74310 -117.00756 23955 ft 304 kts 258°
2026-05-05 06:18 34.74038 -117.03394 23826 ft 330 kts 258°
2026-05-05 06:18 34.73736 -117.06307 23535 ft 364 kts 259°
2026-05-05 06:18 34.73415 -117.09484 23135 ft 389 kts 259°
2026-05-05 06:19 34.73090 -117.12750 22728 ft 390 kts 259°
2026-05-05 06:19 34.72758 -117.16017 22324 ft 390 kts 259°
2026-05-05 06:19 34.72418 -117.19291 21976 ft 391 kts 259°
2026-05-05 06:19 34.72080 -117.22565 21595 ft 389 kts 259°
2026-05-05 06:20 34.71745 -117.25825 21214 ft 388 kts 259°
2026-05-05 06:20 34.71410 -117.29068 20837 ft 386 kts 259°
2026-05-05 06:20 34.71074 -117.32296 20459 ft 384 kts 259°
2026-05-05 06:20 34.70739 -117.35511 20081 ft 382 kts 259°
2026-05-05 06:21 34.70405 -117.38709 19706 ft 381 kts 259°
2026-05-05 06:21 34.70073 -117.41890 19329 ft 377 kts 259°
2026-05-05 06:21 34.69742 -117.45042 18953 ft 376 kts 259°
2026-05-05 06:21 34.69415 -117.48142 18587 ft 374 kts 260°
2026-05-05 06:22 34.69082 -117.51305 18183 ft 371 kts 260°
2026-05-05 06:22 34.68759 -117.54364 17798 ft 370 kts 260°
2026-05-05 06:22 34.68431 -117.57458 17406 ft 368 kts 260°
2026-05-05 06:22 34.68104 -117.60531 17004 ft 366 kts 260°
2026-05-05 06:23 34.67779 -117.63586 16632 ft 364 kts 261°
2026-05-05 06:23 34.67455 -117.66628 16264 ft 363 kts 261°
2026-05-05 06:23 34.67130 -117.69663 15898 ft 361 kts 261°
2026-05-05 06:23 34.66807 -117.72675 15522 ft 360 kts 261°
2026-05-05 06:24 34.66484 -117.75679 15159 ft 357 kts 261°
2026-05-05 06:24 34.66164 -117.78656 14821 ft 355 kts 261°
2026-05-05 06:24 34.65843 -117.81626 14473 ft 353 kts 261°
2026-05-05 06:24 34.65523 -117.84583 14127 ft 353 kts 261°
2026-05-05 06:25 34.65204 -117.87525 13778 ft 351 kts 261°
2026-05-05 06:25 34.64887 -117.90441 13414 ft 348 kts 261°
2026-05-05 06:25 34.64569 -117.93348 13070 ft 348 kts 261°
2026-05-05 06:25 34.64254 -117.96234 12730 ft 346 kts 261°
2026-05-05 06:26 34.63940 -117.99110 12392 ft 340 kts 261°
2026-05-05 06:26 34.63626 -118.01967 12049 ft 339 kts 261°
2026-05-05 06:26 34.63314 -118.04796 11713 ft 338 kts 261°
2026-05-05 06:26 34.62893 -118.07588 11371 ft 337 kts 255°
2026-05-05 06:27 34.62262 -118.10351 11049 ft 337 kts 254°
2026-05-05 06:27 34.61111 -118.15508 10412 ft 296 kts 255°
2026-05-05 06:27 34.60597 -118.17850 10122 ft 281 kts 254°
2026-05-05 06:28 34.60088 -118.20121 9843 ft 276 kts 254°
2026-05-05 06:28 34.59591 -118.22344 9558 ft 272 kts 254°
2026-05-05 06:28 34.59100 -118.24547 9285 ft 269 kts 254°
2026-05-05 06:28 34.58611 -118.26743 9017 ft 270 kts 255°
2026-05-05 06:29 34.58123 -118.28939 8758 ft 270 kts 254°
2026-05-05 06:29 34.57630 -118.31130 8496 ft 268 kts 254°
2026-05-05 06:29 34.57140 -118.33307 8216 ft 266 kts 255°
2026-05-05 06:29 34.56661 -118.35452 7975 ft 260 kts 255°
2026-05-05 06:30 34.56206 -118.37485 7966 ft 243 kts 255°
2026-05-05 06:30 34.55747 -118.39530 7927 ft 262 kts 255°
2026-05-05 06:30 34.55264 -118.41677 7752 ft 265 kts 255°
2026-05-05 06:30 34.54779 -118.43834 7524 ft 266 kts 255°
2026-05-05 06:31 34.54297 -118.45978 7312 ft 261 kts 255°
2026-05-05 06:31 34.53818 -118.48115 7082 ft 263 kts 255°
2026-05-05 06:31 34.53335 -118.50252 6849 ft 264 kts 255°
2026-05-05 06:31 34.52850 -118.52397 6622 ft 262 kts 254°
2026-05-05 06:32 34.52366 -118.54519 6384 ft 259 kts 254°
2026-05-05 06:32 34.51483 -118.56405 6080 ft 260 kts 229°
2026-05-05 06:32 34.50055 -118.57672 5973 ft 248 kts 207°
2026-05-05 06:32 34.48419 -118.58167 5975 ft 244 kts 186°
2026-05-05 06:33 34.46715 -118.57886 5987 ft 249 kts 167°
2026-05-05 06:33 34.45048 -118.57275 6008 ft 251 kts 166°
2026-05-05 06:33 34.43401 -118.56683 6005 ft 245 kts 166°
2026-05-05 06:33 34.41811 -118.56116 5999 ft 229 kts 167°
2026-05-05 06:34 34.40331 -118.55588 5994 ft 221 kts 166°
2026-05-05 06:34 34.38859 -118.55063 5995 ft 222 kts 166°
2026-05-05 06:34 34.37365 -118.54529 5867 ft 225 kts 166°
2026-05-05 06:34 34.35868 -118.53993 5699 ft 224 kts 166°
2026-05-05 06:35 34.34372 -118.53458 5505 ft 224 kts 166°
2026-05-05 06:35 34.32881 -118.52926 5321 ft 223 kts 165°
2026-05-05 06:35 34.31396 -118.52395 5125 ft 222 kts 165°
2026-05-05 06:35 34.29918 -118.51868 4947 ft 221 kts 166°
2026-05-05 06:36 34.28452 -118.51344 4746 ft 216 kts 166°
2026-05-05 06:36 34.27040 -118.50840 4546 ft 207 kts 165°
2026-05-05 06:36 34.25680 -118.50355 4364 ft 200 kts 165°
2026-05-05 06:36 34.24371 -118.49889 4194 ft 195 kts 165°
2026-05-05 06:37 34.23071 -118.49536 3985 ft 187 kts 180°
2026-05-05 06:37 34.21921 -118.50089 3799 ft 173 kts 211°
2026-05-05 06:37 34.20886 -118.50781 3735 ft 171 kts 211°
2026-05-05 06:37 34.19708 -118.51080 3145 ft 182 kts 169°
2026-05-05 06:38 34.18816 -118.50197 2695 ft 164 kts 112°
2026-05-05 06:38 34.18941 -118.48930 2318 ft 153 kts 55°
2026-05-05 06:38 34.19551 -118.47915 2330 ft 153 kts 59°
2026-05-05 06:38 34.19864 -118.46698 2318 ft 155 kts 87°
2026-05-05 06:39 34.19865 -118.45420 2200 ft 153 kts 89°
2026-05-05 06:39 34.19873 -118.44145 1977 ft 150 kts 89°
2026-05-05 06:39 34.19863 -118.42887 1766 ft 150 kts 90°
2026-05-05 06:39 34.19849 -118.41635 1562 ft 149 kts 91°
2026-05-05 06:40 34.19834 -118.40388 1355 ft 148 kts 91°
2026-05-05 06:40 34.19820 -118.39167 1152 ft 143 kts 91°
2026-05-05 06:40 34.19800 -118.37991 967 ft 140 kts 91°
2026-05-05 06:40 34.19794 -118.36885 762 ft 124 kts 91°
2026-05-05 06:41 34.19781 -118.35932 711 ft 97 kts 89°
2026-05-05 06:41 34.19773 -118.35391 708 ft 39 kts 90°
2026-05-05 06:41 34.19811 -118.35230 706 ft 15 kts 50°
2026-05-05 06:41 34.19869 -118.35240 705 ft 6 kts 315°
2026-05-05 06:42 34.19879 -118.35278 705 ft 4 kts 282°
2026-05-05 06:42 34.19881 -118.35307 708 ft 5 kts 273°
2026-05-05 06:42 34.19882 -118.35371 711 ft 10 kts 271°
2026-05-05 06:42 34.19883 -118.35470 716 ft 14 kts 270°
2026-05-05 06:43 34.19884 -118.35607 713 ft 19 kts 270°
2026-05-05 06:43 34.19884 -118.35800 711 ft 27 kts 270°
2026-05-05 06:43 34.19891 -118.35997 713 ft 14 kts 288°
2026-05-05 06:43 34.19948 -118.36007 714 ft 4 kts 66°
2026-05-05 06:44 34.19942 -118.35994 714 ft 3 kts 122°
2026-05-05 06:44 34.19941 -118.35979 714 ft 0 kts 69°
2026-05-05 06:44 34.19945 -118.35977 714 ft 1 kts 25°
2026-05-05 06:44 34.19950 -118.35977 715 ft 0 kts